This demonstration page uses our WeatherBlox Daily Observations layout. Learn more.

Left ArrowRight Arrow

44.8408, -93.29828

Hourly Observations for September 6, 2018

Temp ( °F °C ) Dew Point ( °F °C ) Humidity (%) Winds ( mph kmh ) Pressure ( in mb ) Visibility ( mi km ) Precip ( " mm )
12:53 am 00:53 Clear 58 14.4 50 10 75 75 N 8 13 30.36 1028 10 16 0.00 0.00
1:53 am 01:53 Clear 57 13.9 49 9.4 74 74 NNE 6 9 30.37 1028 10 16 0.00 0.00
2:53 am 02:53 Clear 56 13.3 48 8.9 75 75 NNE 5 7 30.37 1028 10 16 0.00 0.00
3:53 am 03:53 Clear 56 13.3 48 8.9 75 75 NE 5 7 30.37 1029 10 16 0.00 0.00
4:53 am 04:53 Clear 53 11.7 48 8.9 83 83 NE 5 7 30.39 1029 10 16 0.00 0.00
5:53 am 05:53 Clear 52 11.1 47 8.3 83 83 NNE 7 11 30.40 1030 10 16 0.00 0.00
6:53 am 06:53 Mostly Sunny 53 11.7 46 7.8 77 77 NE 3 6 30.42 1030 10 16 0.00 0.00
7:53 am 07:53 Sunny 56 13.3 46 7.8 70 70 ENE 5 7 30.43 1031 10 16 0.00 0.00
8:53 am 08:53 Sunny 60 15.6 46 7.8 60 60 E 8 13 30.44 1031 10 16 0.00 0.00
9:53 am 09:53 Mostly Sunny 64 17.8 46 7.8 52 52 E 9 15 30.43 1031 10 16 0.00 0.00
10:53 am 10:53 Mostly Sunny 66 18.9 43 6.1 43 43 E 8 13 30.43 1030 10 16 0.00 0.00
11:53 am 11:53 Mostly Sunny 68 20 42 5.6 39 39 E 5 7 30.42 1030 10 16 0.00 0.00
12:53 pm 12:53 Mostly Sunny 68 20 42 5.6 39 39 SE 5 7 30.40 1029 10 16 0.00 0.00
1:53 pm 13:53 Mostly Sunny 71 21.7 45 7.2 39 39 Calm 30.37 1029 10 16 0.00 0.00
2:53 pm 14:53 Mostly Sunny 74 23.3 42 5.6 32 32 E 6 9 30.36 1028 10 16 0.00 0.00
3:53 pm 15:53 Partly Cloudy 73 22.8 42 5.6 33 33 NNE 9 15 30.34 1027 10 16 0.00 0.00
4:53 pm 16:53 Mostly Cloudy 74 23.3 43 6.1 33 33 Calm 30.32 1027 10 16 0.00 0.00
5:53 pm 17:53 Partly Cloudy 73 22.8 45 7.2 37 37 NNE 8 13 30.31 1027 10 16 0.00 0.00
6:53 pm 18:53 Partly Cloudy 71 21.7 43 6.1 36 36 ENE 7 11 30.30 1026 10 16 0.00 0.00
7:53 pm 19:53 Partly Cloudy 67 19.4 44 6.7 44 44 NNE 5 7 30.29 1026 10 16 0.00 0.00
8:53 pm 20:53 Partly Cloudy 66 18.9 47 8.3 50 50 ENE 5 7 30.31 1026 10 16 0.00 0.00
9:53 pm 21:53 Partly Cloudy 63 17.2 49 9.4 60 60 NNE 6 9 30.32 1027 10 16 0.00 0.00
10:53 pm 22:53 Partly Cloudy 62 16.7 50 10 65 65 VRB 3 6 30.32 1027 10 16 0.00 0.00
11:53 pm 23:53 Partly Cloudy 61 16.1 51 10.6 70 70 Calm 30.34 1027 10 16 0.00 0.00

Powered by AerisWeather